Miscellaneous Local Product
Issued by NWS North Platte, NE

Home | Current Version | Previous Version | Text Only | Print | Product List | Glossary On
Versions: 1 2 3 4 5 6 7 8 9 10 11 12 13 14 15 16 17 18 19 20 21 22 23 24 25 26 27 28 29 30 31 32 33 34 35 36 37 38 39 40 41 42 43 44 45 46 47 48 49 50
000
AXUS43 KLBF 251710
MISLBF


WESTERN AND NORTH CENTRAL NEBRASKA HOURLY WEATHER ROUNDUP
NATIONAL WEATHER SERVICE NORTH PLATTE NE
1200 PM CDT MON MAY 25 2015

***STATIONS NOT REPORTING VARIABLES SUCH AS SKY/WEATHER OR
PRESSURE ARE PROVIDED BY THE NEBRASKA DEPARTMENT OF
ROADS...RAWS...AND APRS NETWORKS...AND ARE NOT UNDER
NATIONAL WEATHER SERVICE QUALITY CONTROL***

...OBSERVATIONS IN AND NEAR THE EASTERN PANHANDLE OF NEBRASKA...

CITY           SKY/WX    TMP DP  RH WIND       PRES   REMARKS
PINE RIDGE     CLOUDY    56  50  80 NE9       29.83R
CHADRON        CLOUDY    56  51  84 NE3       29.83S
ALLIANCE       LGT RAIN  52  51  97 N8        29.81R FOG
SIDNEY         LGT RAIN  52  48  86 NW14      29.87R
WHITECLAY        N/A     54  50  87 E7          N/A
BIG SPRINGS      N/A     59  52  77 W12         N/A
$$

...OBSERVATIONS IN NORTH CENTRAL NEBRASKA...

CITY           SKY/WX    TMP DP  RH WIND       PRES   REMARKS
VALENTINE      LGT RAIN  58  56  93 E12       29.77S
THEDFORD       LGT RAIN  60  55  83 W7        29.79S
AINSWORTH      CLOUDY    58  58 100 NE12      29.76F
O`NEILL        PTSUNNY   65  62  90 SE9       29.76F
ORD            MOSUNNY   67  55  65 W9        29.76F
BROKEN BOW     PTSUNNY   68  55  63 VRB6      29.77F
VALENTINE NWR    N/A     52  52  99 S6          N/A
SPRINGVIEW       N/A     57  55  94 CALM        N/A
HALSEY           N/A     62  57  84 SW5         N/A
ROSE             N/A     66  59  78 S6          N/A
NEWPORT          N/A     62  61  99 E12         N/A
SARGENT          N/A     66  54  66 W8          N/A
COMSTOCK         N/A     74  59  59 W6          N/A
EWING            N/A     67  63  88 S3          N/A
$$

...OBSERVATIONS IN SOUTHWEST NEBRASKA AND FAR NORTHEAST COLORADO...

CITY           SKY/WX    TMP DP  RH WIND       PRES   REMARKS
WRAY           PTSUNNY   62  48  59 NW13G20   29.85F
IMPERIAL       CLOUDY    61  50  67 NW16G23   29.82S
OGALLALA       CLOUDY    60  53  76 W9        29.81S
NORTH PLATTE   CLOUDY    61  52  72 W12       29.80F
MCCOOK         SUNNY     66  53  63 NW12      29.78F
LEXINGTON      PTSUNNY   67  55  65 SW8       29.78S
PAXTON           N/A     59  55  87 CALM        N/A
GOTHENBURG       N/A     65  48  55 SW6         N/A
CALLAWAY         N/A     65  56  74 SW6         N/A
$$

...NORTH PLATTE AREA...

CITY           SKY/WX    TMP DP  RH WIND       PRES   REMARKS
AIRPORT        CLOUDY    61  52  72 W12       29.80F
DOWNTOWN         N/A     63  52  67 SW3         N/A
$$

...SOME WEATHER OBSERVATIONS FROM AROUND THE REGION...

CITY           SKY/WX    TMP DP  RH WIND       PRES   REMARKS
DENVER         PTSUNNY   59  42  53 E6        29.92S
LARAMIE        CLOUDY    47  35  63 W7        29.96S
CHEYENNE       CLOUDY    51  41  68 NW14      29.93R
SCOTTSBLUFF    LGT RAIN  53  51  93 W12       29.86R
RAPID CITY     CLOUDY    59  52  77 N14       29.82S
PIERRE         CLOUDY    60  55  83 NE7       29.77F
WINNER         CLOUDY    62  55  77 NE9       29.77S
SIOUX FALLS    CLOUDY    65  58  78 SW6       29.76S
OMAHA          MOSUNNY   73  58  59 SW12      29.79F
GRAND ISLAND   PTSUNNY   70  53  54 S8        29.79S
KANSAS CITY    MOSUNNY   74  64  71 S13       29.88S
WICHITA        PTSUNNY   76  67  73 S25G33    29.82S
HAYS           CLOUDY    64  55  72 S9        29.84R
LIBERAL        PTSUNNY   68  57  68 N6        29.87F
GOODLAND       MOSUNNY   64  51  62 NW14      29.84S
$$



USA.gov is the U.S. government's official web portal to all federal, state and local government web resources and services.